TimeCST,TemperatureF,Dew PointF,Humidity,Sea Level PressureIn,VisibilityMPH,Wind Direction,Wind SpeedMPH,Gust SpeedMPH,PrecipitationIn,Events,Conditions,WindDirDegrees,DateUTC
12:15 AM,15.1,8.4,75,30.38,10.0,SW,3.5,-,N/A,,Clear,220,2012-11-24 06:15:00
12:35 AM,17.8,10.2,72,30.38,10.0,WSW,5.8,-,N/A,,Clear,240,2012-11-24 06:35:00
12:55 AM,19.6,12.2,73,30.37,10.0,WSW,3.5,-,N/A,,Clear,240,2012-11-24 06:55:00
1:15 AM,19.4,10.8,69,30.36,10.0,Calm,Calm,-,N/A,,Clear,0,2012-11-24 07:15:00
1:35 AM,15.6,9.7,77,30.35,10.0,Calm,Calm,-,N/A,,Clear,0,2012-11-24 07:35:00
1:55 AM,15.6,9.5,77,30.34,10.0,ENE,3.5,-,N/A,,Clear,60,2012-11-24 07:55:00
2:15 AM,16.7,10.6,77,30.33,10.0,Calm,Calm,-,N/A,,Clear,0,2012-11-24 08:15:00
2:35 AM,17.4,10.8,75,30.33,10.0,Calm,Calm,-,N/A,,Clear,0,2012-11-24 08:35:00
2:55 AM,17.6,10.9,75,30.33,10.0,Calm,Calm,-,N/A,,Clear,0,2012-11-24 08:55:00
3:15 AM,18.3,10.9,73,30.33,10.0,Calm,Calm,-,N/A,,Clear,0,2012-11-24 09:15:00
3:55 AM,16.3,10.9,79,30.31,10.0,SSE,3.5,-,N/A,,Clear,150,2012-11-24 09:55:00
4:15 AM,15.8,10.0,78,30.30,10.0,SE,3.5,-,N/A,,Clear,140,2012-11-24 10:15:00
4:35 AM,16.5,10.9,79,30.28,10.0,SE,5.8,-,N/A,,Clear,130,2012-11-24 10:35:00
4:55 AM,17.6,11.8,78,30.27,10.0,Calm,Calm,-,N/A,,Clear,0,2012-11-24 10:55:00
5:15 AM,19.0,12.9,77,30.28,10.0,SE,3.5,-,N/A,,Clear,130,2012-11-24 11:15:00
5:35 AM,19.8,12.2,72,30.27,10.0,SSE,4.6,-,N/A,,Clear,150,2012-11-24 11:35:00
5:55 AM,20.3,12.9,73,30.26,10.0,SE,4.6,-,N/A,,Clear,140,2012-11-24 11:55:00
6:15 AM,21.0,12.9,71,30.24,10.0,SSE,6.9,-,N/A,,Clear,150,2012-11-24 12:15:00
6:35 AM,21.7,12.7,68,30.24,10.0,SSE,8.1,-,N/A,,Clear,150,2012-11-24 12:35:00
6:55 AM,21.6,13.1,70,30.24,10.0,SSE,8.1,-,N/A,,Clear,150,2012-11-24 12:55:00
7:15 AM,22.5,13.1,67,30.23,10.0,SSE,6.9,-,N/A,,Clear,150,2012-11-24 13:15:00
7:35 AM,22.6,13.5,68,30.21,10.0,SSE,8.1,-,N/A,,Clear,150,2012-11-24 13:35:00
7:55 AM,23.2,14.5,70,30.20,10.0,SE,6.9,-,N/A,,Clear,140,2012-11-24 13:55:00
8:15 AM,25.0,14.2,64,30.20,10.0,SSE,8.1,-,N/A,,Clear,150,2012-11-24 14:15:00
8:35 AM,26.2,14.2,60,30.20,10.0,SSE,10.4,-,N/A,,Clear,150,2012-11-24 14:35:00
8:55 AM,27.9,14.0,56,30.18,10.0,SSE,12.7,-,N/A,,Clear,150,2012-11-24 14:55:00
9:15 AM,29.3,13.1,51,30.16,10.0,SSE,15.0,-,N/A,,Clear,150,2012-11-24 15:15:00
9:35 AM,31.1,12.9,47,30.16,10.0,SSE,18.4,21.9,N/A,,Clear,160,2012-11-24 15:35:00
9:55 AM,32.2,12.9,45,30.14,10.0,SSE,16.1,24.2,N/A,,Clear,160,2012-11-24 15:55:00
10:15 AM,33.8,13.5,43,30.14,10.0,SSE,17.3,20.7,N/A,,Clear,160,2012-11-24 16:15:00
10:35 AM,34.2,14.0,44,30.12,10.0,SSE,16.1,-,N/A,,Clear,150,2012-11-24 16:35:00
10:55 AM,36.3,14.4,41,30.09,10.0,SSE,19.6,23.0,N/A,,Clear,160,2012-11-24 16:55:00
11:15 AM,37.8,14.2,38,30.09,10.0,SSE,17.3,24.2,N/A,,Clear,160,2012-11-24 17:15:00
11:35 AM,38.7,14.5,37,30.07,10.0,SSE,18.4,-,N/A,,Clear,160,2012-11-24 17:35:00
11:55 AM,40.1,14.9,36,30.04,10.0,SSE,18.4,-,N/A,,Clear,160,2012-11-24 17:55:00
12:15 PM,42.1,14.9,33,30.02,10.0,SSE,18.4,24.2,N/A,,Clear,160,2012-11-24 18:15:00
12:35 PM,43.0,15.4,33,30.00,10.0,SSE,17.3,23.0,N/A,,Clear,160,2012-11-24 18:35:00
12:55 PM,45.1,16.3,32,29.98,10.0,South,20.7,25.3,N/A,,Clear,190,2012-11-24 18:55:00
1:15 PM,45.1,16.7,32,29.96,10.0,South,18.4,24.2,N/A,,Clear,180,2012-11-24 19:15:00
1:35 PM,44.4,16.7,33,29.95,10.0,SSW,16.1,25.3,N/A,,Clear,200,2012-11-24 19:35:00
1:55 PM,44.2,17.4,34,29.94,10.0,South,19.6,24.2,N/A,,Clear,190,2012-11-24 19:55:00
2:15 PM,45.0,18.1,34,29.92,10.0,South,18.4,-,N/A,,Clear,190,2012-11-24 20:15:00
2:35 PM,45.7,18.7,34,29.90,10.0,South,18.4,21.9,N/A,,Clear,180,2012-11-24 20:35:00
2:55 PM,46.6,18.7,33,29.89,10.0,South,19.6,-,N/A,,Clear,180,2012-11-24 20:55:00
3:15 PM,46.9,19.4,34,29.89,10.0,SSW,17.3,20.7,N/A,,Clear,200,2012-11-24 21:15:00
3:35 PM,48.0,19.6,32,29.88,10.0,South,17.3,-,N/A,,Clear,190,2012-11-24 21:35:00
3:55 PM,47.7,20.1,34,29.88,10.0,South,12.7,-,N/A,,Clear,190,2012-11-24 21:55:00
4:15 PM,47.3,19.9,34,29.87,10.0,South,11.5,-,N/A,,Clear,190,2012-11-24 22:15:00
4:35 PM,46.6,20.1,35,29.88,10.0,South,10.4,-,N/A,,Clear,180,2012-11-24 22:35:00
4:55 PM,45.0,20.8,38,29.88,10.0,South,6.9,-,N/A,,Clear,180,2012-11-24 22:55:00
5:15 PM,44.2,21.2,40,29.87,10.0,South,8.1,-,N/A,,Clear,180,2012-11-24 23:15:00
5:35 PM,43.5,21.6,42,29.86,10.0,South,6.9,-,N/A,,Clear,170,2012-11-24 23:35:00
5:55 PM,41.9,22.1,45,29.87,10.0,South,4.6,-,N/A,,Clear,170,2012-11-24 23:55:00
6:15 PM,41.5,21.7,45,29.86,10.0,SSE,4.6,-,N/A,,Clear,160,2012-11-25 00:15:00
6:35 PM,40.6,21.2,46,29.86,10.0,SSE,6.9,-,N/A,,Clear,160,2012-11-25 00:35:00
6:55 PM,39.0,21.2,49,29.86,10.0,SSE,5.8,-,N/A,,Clear,150,2012-11-25 00:55:00
7:15 PM,38.3,21.2,50,29.86,10.0,SSE,3.5,-,N/A,,Clear,160,2012-11-25 01:15:00
7:35 PM,38.3,21.2,50,29.86,10.0,South,3.5,-,N/A,,Clear,180,2012-11-25 01:35:00
7:55 PM,37.2,21.9,54,29.86,10.0,Calm,Calm,-,N/A,,Clear,0,2012-11-25 01:55:00
8:15 PM,36.7,22.1,56,29.86,10.0,NNE,3.5,-,N/A,,Scattered Clouds,30,2012-11-25 02:15:00
8:35 PM,36.3,22.6,58,29.85,10.0,SE,3.5,-,N/A,,Clear,140,2012-11-25 02:35:00
8:55 PM,36.9,21.9,55,29.85,10.0,SSE,3.5,-,N/A,,Scattered Clouds,150,2012-11-25 02:55:00
9:15 PM,34.7,21.9,60,29.86,10.0,Calm,Calm,-,N/A,,Mostly Cloudy,0,2012-11-25 03:15:00
9:35 PM,36.5,22.3,56,29.86,10.0,Calm,Calm,-,N/A,,Mostly Cloudy,0,2012-11-25 03:35:00
9:55 PM,36.5,22.6,57,29.86,10.0,Calm,Calm,-,N/A,,Mostly Cloudy,0,2012-11-25 03:55:00
10:15 PM,34.2,27.0,75,29.87,10.0,WSW,5.8,-,N/A,,Scattered Clouds,250,2012-11-25 04:15:00
10:35 PM,34.5,27.1,74,29.87,10.0,Calm,Calm,-,N/A,,Clear,0,2012-11-25 04:35:00
10:55 PM,34.3,26.1,72,29.86,10.0,Calm,Calm,-,N/A,,Clear,0,2012-11-25 04:55:00
11:15 PM,33.3,24.6,71,29.87,10.0,Calm,Calm,-,N/A,,Clear,0,2012-11-25 05:15:00
11:35 PM,32.4,23.4,69,29.87,10.0,Calm,Calm,-,N/A,,Clear,0,2012-11-25 05:35:00
11:55 PM,34.0,23.2,65,29.86,10.0,WNW,3.5,-,N/A,,Clear,300,2012-11-25 05:55:00